Starlink 35660

operational
NORAD ID: 67003 Int'l Des: 2025-293 Owner: SPXS Country: US Constellation: starlink
LEOCIRCULAR

关于 Starlink 35660

正在加载描述...

实时位置

正在加载3D地球...

即将过境

高度历史

Altitude vs Time

uPlot chart will show altitude changes over time

两行轨道根数

1 67003C 25293A 25346.10395833 -.00540380 00000+0 -77179-3 0 3460
2 67003 69.9976 325.9274 0004122 272.3461 194.4290 16.05817169 14
Epoch: Dec 12, 2025 • Age: 56 hours

当前状态

高度 273.6 km
速度 7.74 km/s
星下点 -28.18°S, 108.12°E
发射日期 Dec 10, 2025
运行时间 3 days
类型 internet

技术详情

分类 Payload
质量 575.00 kg
干质量 530.00 kg
总质量 575.00 kg
长度 0.30 m
直径 4.10 m
跨度 29.00 m
形状 Box + pan
制造商 SPXS
平台类型 Starlink V2MO
阶段状态 In Orbit
所有者/国家 SPXS/US

大型星座

Loading constellations...